Location: Lugrin
(46.4033°N, 6.6674°E)
Time: 07:44:17
(UTC+00:00)

Tsikada Rocket - Pass Details

Date: 25 January 2021
Orbit: 957 x 1009 km, 82.9° (Epoch: 04 March)

Event Time Altitude Azimuth Distance (km) Brightness Sun altitude
Rises 17:28:57 0° 228° (SW) 3,694 8.3 -10.7°
Reaches altitude 10° 17:32:02 10° 242° (WSW) 2,740 7.8 -11.2°
Maximum altitude 17:36:56 23° 293° (WNW) 1,933 6.2 -12.0°
Drops below altitude 10° 17:41:49 10° 345° (NNW) 2,726 6.4 -12.8°
Sets 17:44:54 0° 360° (N) 3,669 6.9 -13.3°
